Location: Potomac
(46.8816°N, 113.5795°W)
Time: 12:02:12
(UTC+00:00)

AO-91 - Pass Details

Date: 05 July 2022
Orbit: 450 x 797 km, 97.7° (Epoch: 12 August)

Event Time Altitude Azimuth Distance (km) Brightness Sun altitude
Rises 05:23:22 0° 31° (NNE) 2,484 ? -13.9°
Reaches altitude 10° 05:26:12 10° 58° (ENE) 1,591 ? -14.2°
Maximum altitude 05:28:04 14° 92° (E) 1,357 ? -14.3°
Enters shadow 05:28:13 14° 95° (E) 1,358 ? -14.3°
